• In Portugal
  • List of Countries
  • For 7 days
  • Water Temperature
  • Satellite Maps
  • Weather Map
  • Weather Widgets
  • user-avatar
    Login

    Hourly Weather Chwaliszow

    Today, 25 September, Tuesday

    Time Temperature Precipitation Wind Pressure Humidity
    00:00 +3°C° 0 mm 5 mps 741 mmHg 83%
    01:00 +3°C° 0 mm 3 mps 742 mmHg 88%
    02:00 +3°C° 0 mm 3 mps 742 mmHg 87%
    03:00 +3°C° 0 mm 4 mps 742 mmHg 87%
    04:00 +3°C° 0 mm 4 mps 743 mmHg 87%
    05:00 +3°C° 0 mm 4 mps 743 mmHg 85%
    06:00 +3°C° 0 mm 4 mps 744 mmHg 84%
    07:00 +3°C° 0 mm 4 mps 745 mmHg 81%
    08:00 +5°C° 0 mm 4 mps 745 mmHg 75%
    09:00 +6°C° 0 mm 5 mps 745 mmHg 68%
    10:00 +8°C° 0 mm 5 mps 746 mmHg 62%
    11:00 +9°C° 0 mm 5 mps 746 mmHg 58%
    12:00 +9°C° 0 mm 5 mps 746 mmHg 54%
    13:00 +10°C° 0 mm 5 mps 746 mmHg 50%
    14:00 +10°C° 0 mm 5 mps 746 mmHg 50%
    15:00 +11°C° 0 mm 4 mps 746 mmHg 51%
    16:00 +11°C° 0 mm 4 mps 746 mmHg 51%
    17:00 +9°C° 0 mm 3 mps 747 mmHg 58%
    18:00 +8°C° 0 mm 3 mps 747 mmHg 64%
    19:00 +6°C° 0 mm 2 mps 747 mmHg 70%
    20:00 +6°C° 0 mm 2 mps 747 mmHg 71%
    21:00 +5°C° 0 mm 2 mps 748 mmHg 73%
    22:00 +5°C° 0 mm 2 mps 748 mmHg 74%
    23:00 +5°C° 0 mm 2 mps 748 mmHg 74%

    Tomorrow, 26 September, Wednesday

    Time Temperature Precipitation Wind Pressure Humidity
    00:00 +5°C° 0 mm 2 mps 748 mmHg 75%
    01:00 +4°C° 0 mm 2 mps 748 mmHg 75%
    02:00 +4°C° 0 mm 2 mps 748 mmHg 76%
    03:00 +4°C° 0 mm 2 mps 748 mmHg 76%
    04:00 +4°C° 0 mm 2 mps 748 mmHg 77%
    05:00 +4°C° 0 mm 2 mps 748 mmHg 75%
    06:00 +4°C° 0 mm 2 mps 748 mmHg 74%
    07:00 +5°C° 0 mm 2 mps 748 mmHg 73%
    08:00 +7°C° 0 mm 3 mps 747 mmHg 64%
    09:00 +9°C° 0 mm 3 mps 747 mmHg 56%
    10:00 +11°C° 0 mm 3 mps 747 mmHg 48%
    11:00 +12°C° 0 mm 4 mps 747 mmHg 44%
    12:00 +13°C° 0 mm 4 mps 746 mmHg 41%
    13:00 +14°C° 0 mm 4 mps 746 mmHg 38%
    14:00 +14°C° 0 mm 4 mps 745 mmHg 40%
    15:00 +14°C° 0 mm 4 mps 745 mmHg 41%
    16:00 +14°C° 0 mm 4 mps 744 mmHg 42%
    17:00 +13°C° 0 mm 4 mps 744 mmHg 45%
    18:00 +12°C° 0 mm 4 mps 744 mmHg 47%
    19:00 +10°C° 0 mm 4 mps 743 mmHg 50%
    20:00 +10°C° 0 mm 4 mps 743 mmHg 51%
    21:00 +10°C° 0 mm 4 mps 743 mmHg 51%
    22:00 +8°C° 0 mm 4 mps 743 mmHg 52%
    23:00 +8°C° 0 mm 4 mps 743 mmHg 53%

    Day after tomorrow, 27 September, Thursday

    Time Temperature Precipitation Wind Pressure Humidity
    00:00 +8°C° 0 mm 4 mps 743 mmHg 54%
    01:00 +8°C° 0 mm 4 mps 743 mmHg 55%
    02:00 +8°C° 0 mm 4 mps 743 mmHg 56%
    03:00 +8°C° 0 mm 4 mps 743 mmHg 56%
    04:00 +9°C° 0 mm 3 mps 743 mmHg 56%
    05:00 +9°C° 0 mm 3 mps 743 mmHg 57%
    06:00 +10°C° 0 mm 3 mps 743 mmHg 57%
    07:00 +10°C° 0 mm 3 mps 743 mmHg 57%
    08:00 +12°C° 0 mm 4 mps 743 mmHg 55%
    09:00 +14°C° 0 mm 4 mps 743 mmHg 52%
    10:00 +17°C° 0 mm 4 mps 743 mmHg 50%
    11:00 +18°C° 0 mm 4 mps 743 mmHg 50%
    12:00 +19°C° 0 mm 4 mps 742 mmHg 50%
    13:00 +21°C° 0 mm 4 mps 742 mmHg 51%
    14:00 +20°C° 0 mm 4 mps 742 mmHg 52%
    15:00 +20°C° 0 mm 3 mps 741 mmHg 53%
    16:00 +20°C° 0 mm 3 mps 741 mmHg 55%
    17:00 +19°C° 0 mm 3 mps 740 mmHg 60%
    18:00 +17°C° 0 mm 2 mps 740 mmHg 64%
    19:00 +15°C° 0 mm 2 mps 740 mmHg 69%
    20:00 +15°C° 0 mm 2 mps 739 mmHg 68%
    21:00 +14°C° 0 mm 2 mps 739 mmHg 66%
    22:00 +14°C° 0 mm 2 mps 739 mmHg 65%
    23:00 +13°C° 0 mm 3 mps 738 mmHg 64%

    28 September, Friday

    Time Temperature Precipitation Wind Pressure Humidity
    00:00 +12°C° 0 mm 3 mps 738 mmHg 64%
    01:00 +12°C° 0 mm 3 mps 737 mmHg 63%
    02:00 +12°C° 0 mm 3 mps 737 mmHg 63%
    03:00 +11°C° 0 mm 3 mps 736 mmHg 63%
    04:00 +11°C° 0 mm 3 mps 735 mmHg 63%
    05:00 +11°C° 0 mm 3 mps 735 mmHg 64%
    06:00 +11°C° 0 mm 3 mps 735 mmHg 64%
    07:00 +11°C° 0 mm 3 mps 735 mmHg 65%
    08:00 +13°C° 0 mm 3 mps 735 mmHg 60%
    09:00 +14°C° 0 mm 3 mps 735 mmHg 55%
    10:00 +17°C° 0 mm 4 mps 736 mmHg 51%
    11:00 +18°C° 0 mm 4 mps 736 mmHg 49%
    12:00 +18°C° 0 mm 4 mps 735 mmHg 48%
    13:00 +19°C° 0 mm 4 mps 735 mmHg 47%
    14:00 +18°C° 0 mm 4 mps 735 mmHg 52%
    15:00 +17°C° 0 mm 4 mps 735 mmHg 56%
    16:00 +15°C° 0 mm 4 mps 735 mmHg 61%
    17:00 +14°C° 0 mm 4 mps 735 mmHg 68%
    18:00 +12°C° 0 mm 3 mps 736 mmHg 75%
    19:00 +11°C° 0 mm 3 mps 736 mmHg 82%
    20:00 +10°C° 0 mm 2 mps 736 mmHg 83%
    21:00 +9°C° 0 mm 2 mps 737 mmHg 83%
    22:00 +9°C° 0 mm 2 mps 737 mmHg 84%
    23:00 +8°C° 0 mm 2 mps 737 mmHg 84%

    29 September, Saturday

    Time Temperature Precipitation Wind Pressure Humidity
    00:00 +8°C° 0 mm 2 mps 737 mmHg 84%
    01:00 +7°C° 0 mm 2 mps 737 mmHg 84%
    02:00 +7°C° 0 mm 2 mps 738 mmHg 86%
    03:00 +6°C° 0 mm 2 mps 738 mmHg 87%
    04:00 +6°C° 0 mm 2 mps 738 mmHg 89%
    05:00 +6°C° 0 mm 2 mps 739 mmHg 89%
    06:00 +6°C° 0 mm 2 mps 739 mmHg 88%
    07:00 +6°C° 0 mm 2 mps 740 mmHg 87%
    08:00 +8°C° 0 mm 2 mps 740 mmHg 76%
    09:00 +9°C° 0 mm 3 mps 740 mmHg 66%
    10:00 +11°C° 0 mm 3 mps 741 mmHg 55%
    11:00 +12°C° 0 mm 3 mps 741 mmHg 52%
    12:00 +12°C° 0 mm 3 mps 740 mmHg 48%
    13:00 +13°C° 0 mm 3 mps 740 mmHg 45%
    14:00 +13°C° 0 mm 3 mps 740 mmHg 45%
    15:00 +12°C° 0 mm 3 mps 740 mmHg 46%
    16:00 +12°C° 0 mm 3 mps 740 mmHg 47%
    17:00 +12°C° 0 mm 2 mps 740 mmHg 53%
    18:00 +9°C° 0 mm 2 mps 740 mmHg 59%
    19:00 +7°C° 0 mm 2 mps 741 mmHg 64%
    20:00 +7°C° 0 mm 2 mps 741 mmHg 66%
    21:00 +6°C° 0 mm 2 mps 741 mmHg 67%
    22:00 +6°C° 0 mm 2 mps 741 mmHg 69%
    23:00 +6°C° 0 mm 2 mps 741 mmHg 70%

    30 September, Sunday

    Time Temperature Precipitation Wind Pressure Humidity
    00:00 +5°C° 0 mm 2 mps 740 mmHg 71%
    01:00 +5°C° 0 mm 2 mps 740 mmHg 72%
    02:00 +5°C° 0 mm 2 mps 740 mmHg 73%
    03:00 +5°C° 0 mm 1 mps 740 mmHg 75%
    04:00 +5°C° 0 mm 1 mps 739 mmHg 76%
    05:00 +5°C° 0 mm 1 mps 739 mmHg 76%
    06:00 +5°C° 0 mm 2 mps 739 mmHg 76%
    07:00 +5°C° 0 mm 2 mps 739 mmHg 75%
    08:00 +7°C° 0 mm 2 mps 739 mmHg 67%
    09:00 +9°C° 0 mm 3 mps 739 mmHg 58%
    10:00 +11°C° 0 mm 3 mps 738 mmHg 50%
    11:00 +12°C° 0 mm 3 mps 738 mmHg 47%
    12:00 +13°C° 0 mm 3 mps 737 mmHg 45%
    13:00 +14°C° 0 mm 3 mps 737 mmHg 42%
    14:00 +14°C° 0 mm 3 mps 736 mmHg 43%
    15:00 +14°C° 0 mm 3 mps 736 mmHg 45%
    16:00 +14°C° 0 mm 3 mps 735 mmHg 46%
    17:00 +13°C° 0 mm 2 mps 735 mmHg 52%
    18:00 +10°C° 0 mm 2 mps 735 mmHg 58%
    19:00 +9°C° 0 mm 1 mps 734 mmHg 65%
    20:00 +9°C° 0 mm 1 mps 734 mmHg 66%
    21:00 +8°C° 0 mm 1 mps 734 mmHg 67%
    22:00 +8°C° 0 mm 1 mps 734 mmHg 68%
    23:00 +8°C° 0 mm 1 mps 733 mmHg 69%
    Show more